Regional Weather Roundup
Issued by NWS

Home | Current Version | Previous Version | Text Only | Print | Product List | Glossary On
Versions: 1 2 3 4 5 6 7 8 9 10 11 12 13 14 15 16 17 18 19 20 21 22 23 24 25 26 27 28 29 30 31 32 33 34 35 36 37 38 39 40 41 42 43 44 45 46 47 48 49 50
000
ASUS44 KFWD 201715
RWRTX
NORTH TEXAS HOURLY WEATHER ROUNDUP
NATIONAL WEATHER SERVICE FORT WORTH TX
1200 PM CDT FRI APR 20 2018

NOTE: "FAIR" INDICATES FEW OR NO CLOUDS BELOW 12,000 FEET WITH NO
SIGNIFICANT WEATHER AND/OR OBSTRUCTIONS TO VISIBILITY.

TXZ118-119-201800-
DALLAS/FORT WORTH METROPLEX

CITY           SKY/WX    TMP DP  RH WIND       PRES   REMARKS
DFW AIRPORT    PTSUNNY   61  33  35 E14       30.28F
DALLAS LOVE    FAIR      61  35  37 E12       30.30F
FTW MEACHAM    FAIR      63  37  38 E15G24    30.28F
DAL-EXECUTIVE  FAIR      60  35  39 E12       30.28F
FTW-ALLIANCE   FAIR      61  37  41 SE13G22   30.28F
FTW-NAS-JRB    FAIR      63  35  35 SE16      30.29F
FTW-SPINKS     SUNNY     63  37  39 SE13G21   30.30F
ARLINGTON      FAIR      60  36  40 E14G20    30.28F
GRAND PRAIRIE  SUNNY     61  36  39 E9G18     30.30F
ADDISON        SUNNY     61  34  36 E10G17    30.30F
MESQUITE       SUNNY     61  36  39 E12       30.31F
LANCASTER      FAIR      62  35  37 SE9       30.30F
$$

TXZ091>094-102>105-117-120-121-131>134-201800-
NORTH CENTRAL TEXAS

CITY           SKY/WX    TMP DP  RH WIND       PRES   REMARKS
SHRMAN/DENISON FAIR      58  35  42 E10       30.31F
GAINESVILLE    FAIR      60  35  38 SE14G24   30.31F
BOWIE          FAIR      60  36  39 SE13G20   30.27S
BRIDGEPORT     FAIR      61  35  38 SE15G21   30.28F
DECATUR        FAIR      60  36  40 SE12G17   30.27F
DENTON         FAIR      60  36  40 E17       30.30F
MCKINNEY       FAIR      59  38  45 E10       30.30F
BONHAM         FAIR      57  37  47 E13       30.32F
GREENVILLE     FAIR      61  37  41 E9G16     30.31F
ROCKWALL       FAIR      59  38  45 MISG      30.31F
TERRELL        FAIR      60  36  40 SE9       30.31S
WAXAHACHIE     FAIR      58  38  46 E8        30.30F
GRANBURY       FAIR      64  38  37 E16G22    30.27F
$$

TXZ083>090-098>101-113>116-127>130-139>142-154-155-201800-
WESTERN NORTH TEXAS

CITY           SKY/WX    TMP DP  RH WIND       PRES   REMARKS
WICHITA FALLS  FAIR      63  38  39 SE21G32   30.22F
WF-KICKAPOO    FAIR      62  38  40 SE23G32   30.25F
VERNON         FAIR      64  38  37 SE22G32   30.20F
ABILENE        CLOUDY    64  40  41 SE21G32   30.16F
ABILENE-DYESS  CLOUDY    65  36  33 SE23G32   30.14F
GRAHAM           N/A     62  38  41 E15G26    30.21F
BRECKENRIDGE   PTSUNNY   66  38  36 SE20G29   30.19F
CISCO          PTSUNNY   63  41  45 SE18G30   30.19F
EASTLAND       FAIR      63  40  43 SE21G29   30.20F
RANGER         FAIR      64  41  43 SE20      30.22F
MINERAL WELLS  FAIR      63  37  38 SE18      30.24F
STEPHENVILLE   FAIR      62  40  43 SE18G25   30.27R
COMANCHE       FAIR      64  44  47 SE14G26   30.22F
BROWNWOOD      FAIR      66  41  39 SE20G28   30.19F
COLEMAN        CLOUDY    65  39  37 SE22G29   30.18F
BRADY          CLOUDY    64  39  39 SE14G22   30.18S
$$

TXZ143>147-156>162-174-175-201800-
CENTRAL TEXAS

CITY           SKY/WX    TMP DP  RH WIND       PRES   REMARKS
WACO           FAIR      63  39  41 SE15      30.27F
WACO-TSTC      SUNNY     61  39  44 E8        30.29S
WACO-MCGREGOR  FAIR      61  41  47 SE12      30.27F
HILLSBORO      FAIR      60  40  49 E12G17    30.28S
CORSICANA      FAIR      61  39  44 SE12      30.30F
MEXIA          FAIR      60  39  47 SE10G17   30.28F
HEARNE         FAIR      62  43  49 E9        30.29F
CAMERON        FAIR      62  42  47 E13       30.27F
TEMPLE         FAIR      64  43  46 SE16G22   30.26F
KILLEEN        MOSUNNY   63  41  45 E16G26    30.23F
KILLEEN-SKYLRK FAIR      63  45  51 E14G23    30.25F
FORT HOOD      FAIR      62  43  49 SE16      30.21F
GATESVILLE     FAIR      63  41  45 E9G18     30.26F
HAMILTON       FAIR      63  44  49 SE17      30.24F
LAMPASAS       FAIR      62  44  52 SE16      30.21F
$$

TXZ095>097-106>112-122>126-135>138-148>153-164>167-201800-
EAST TEXAS

CITY           SKY/WX    TMP DP  RH WIND       PRES   REMARKS
PARIS          FAIR      58  38  47 E15       30.32F
SULPHUR SPRNGS FAIR      59  37  44 E12G18    30.34S
MOUNT PLEASANT FAIR      58  40  51 E10G16    30.33F
GILMER         FAIR      57  38  48 E7        30.31F
MINEOLA        FAIR      57  37  47 NE3       30.30F
TYLER          FAIR      59  34  39 E12G20    30.30F
LONGVIEW       FAIR      57  41  55 E12G17    30.30F
MARSHALL       FAIR      57  36  45 E5        30.34F
ATHENS         FAIR      59  37  44 SE12G17   30.29F
PALESTINE      FAIR      59  39  46 SE8       30.31F
JACKSONVILLE   FAIR      57  40  53 E6        30.32R
HENDERSON      FAIR      58  38  46 E13G18    30.31F
CENTER           N/A     56  36  47 E10G17    30.33F HAZE
NACOGDOCHES      N/A     58  40  51 SE12      30.31F
LUFKIN         FAIR      58  42  55 E10       30.30F
$$

SUPPLEMENTAL OBSERVATIONS (NWS FORT WORTH AREA)

CITY           SKY/WX    TMP DP  RH WIND       PRES   REMARKS
CADDO GRASSLND   N/A     59  36  41 SE7G15      N/A
LBJ GRASSLAND    N/A     61  36  39 E12G22      N/A
POSSUM KINGDOM   N/A     64  39  39 SE15G26     N/A
GRANBURY         N/A     63  37  39 E16G24      N/A
MCGREGOR         N/A     63  41  45 E10         N/A
TEMPLE           N/A     64  43  45 E16G22      N/A
PALESTINE        N/A     61  37  41 E8          N/A
$$

SUPPLEMENTAL OBSERVATIONS (NWS NORMAN AREA)

CITY           SKY/WX    TMP DP  RH WIND       PRES   REMARKS
GOODLETT         N/A     64  35  32 SE23G29   30.15F
ODELL            N/A     63  39  40 SE24      30.21F
CROWELL          N/A     64  38  38 SE17      30.17F
KNOX CITY        N/A     64  36  35 SE17G25   30.15F
SEYMOUR          N/A     64  39  39 E25G32    30.18F
MILLERS CREEK    N/A     66  37  34 SE20G33     N/A
$$

SUPPLEMENTAL OBSERVATIONS (NWS SAN ANGELO AREA)

CITY           SKY/WX    TMP DP  RH WIND       PRES   REMARKS
WEINERT          N/A     64  38  39 SE21      30.16F
HASKELL          N/A     63  36  37 SE18G28   30.15F
THROCKMORTON     N/A     63  41  44 SE21      30.19F
STAMFORD         N/A     67  40  36 SE24      30.16F
CLYDE            N/A     64  39  40 SE21      30.18F
HAMBY            N/A     66  37  34 SE16G24     N/A
IVIE RESERVOIR   N/A     66  37  34 SE20G29     N/A
COLORADO BEND    N/A     64  41  42 E16G26      N/A
$$

SUPPLEMENTAL OBSERVATIONS (NWS SHREVEPORT AREA)

CITY           SKY/WX    TMP DP  RH WIND       PRES   REMARKS
TEXARKANA        N/A     61  37  41 E7          N/A
LINDEN           N/A     61  37  41 NE5G15      N/A
HENDERSON        N/A     61  39  44 E8G17       N/A
LUFKIN           N/A     57  41  54 MISG        N/A
N SABINE NF      N/A     59  39  47 MISG        N/A
$$

SUPPLEMENTAL OBSERVATIONS ARE A COLLECTION OF AUTOMATED INSTRUMENTS
THAT ARE MAINTAINED BY A VARIETY OF FEDERAL AND STATE AGENCIES.
CERTAIN ELEMENTS...SUCH AS HUMIDITY VALUES AND SUSTAINED WIND
SPEEDS...MAY BE APPROXIMATED.




USA.gov is the U.S. government's official web portal to all federal, state and local government web resources and services.